Weather History for Waterloo, IA

Change the Weather History Date:

Wednesday, October 9, 2013

  Actual Average Record
Temperature  
Mean Temperature 63 °F 53 °F  
Max Temperature 75 °F 65 °F 88 °F (2010)
Min Temperature 50 °F 41 °F 19 °F (2000)
Degree Days  
Heating Degree Days 2 13  
Month to date heating degree days 44 101  
Since 1 July heating degree days 166 259  
Cooling Degree Days 0 0  
Month to date cooling degree days 7 8  
Year to date cooling degree days 836 798  
Growing Degree Days 12 (Base 50)    
Moisture  
Dew Point 46 °F    
Average Humidity 60    
Maximum Humidity 86    
Minimum Humidity 33    
Precipitation  
Precipitation 0.00 in 0.08 in 1.31 in (1968)
Month to date precipitation 0.93 0.78  
Year to date precipitation 36.70 29.69  
Snow  
Snow 0.00 in 0.00 in T in (1925)
Month to date snowfall 0.0 0.0  
Since 1 July snowfall 0.0 0.0  
Since 1 September snowfall 0.0 0.0  
Snow Depth 0.00 in    
Sea Level Pressure  
Sea Level Pressure 30.09 in    
Wind  
Wind Speed 9 mph (SSE)    
Max Wind Speed 17 mph    
Max Gust Speed 21 mph    
Visibility 10 miles    
Events      
T = Trace of Precipitation, MM = Missing Value Source: NWS Daily Summary

Daily Weather History Graph

Daily Weather History Graph

Search for Another Location

Airport:

Trip Planner

Search our weather history database for the weather conditions in past years. The results will help you decide how hot, cold, wet, or windy it might be!

Date:

Astronomy

Oct. 09, 2013 Rise Set
Actual Time 7:16 AM CDT 6:36 PM CDT
Civil Twilight 6:47 AM CDT 7:04 PM CDT
Nautical Twilight 6:15 AM CDT 7:37 PM CDT
Astronomical Twilight 5:42 AM CDT 8:10 PM CDT
Moon 12:16 PM CDT (10/9) 10:06 PM CDT (10/9)
Length of Visible Light 12h 17m
Length of Day
11h 20m
Waxing Crescent, 25% of the Moon is Illuminated
Oct 9
Waxing Crescent
Oct 11
First Quarter
Oct 18
Full
Oct 26
Last Quarter
Nov 3
New

Hourly Weather History & Observations

Time (CDT) Temp. Dew Point Humidity Pressure Visibility Wind Dir Wind Speed Gust Speed Precip Events Conditions
12:54 AM 55.9 °F 45.0 °F 67% 30.05 in 10.0 mi South 5.8 mph - N/A   Clear
1:54 AM 55.9 °F 46.0 °F 69% 30.07 in 10.0 mi South 8.1 mph - N/A   Clear
2:54 AM 53.1 °F 46.0 °F 77% 30.07 in 10.0 mi SSE 5.8 mph - N/A   Clear
3:54 AM 52.0 °F 46.0 °F 80% 30.09 in 10.0 mi SSE 6.9 mph - N/A   Clear
4:54 AM 50.0 °F 46.0 °F 86% 30.09 in 10.0 mi SSE 5.8 mph - N/A   Clear
5:54 AM 51.1 °F 46.0 °F 83% 30.10 in 10.0 mi SSE 4.6 mph - N/A   Clear
6:54 AM 51.1 °F 46.0 °F 83% 30.11 in 10.0 mi SSE 5.8 mph - N/A   Clear
7:54 AM 52.0 °F 46.0 °F 80% 30.11 in 10.0 mi SSE 9.2 mph - N/A   Clear
8:54 AM 55.9 °F 46.9 °F 72% 30.12 in 10.0 mi South 10.4 mph - N/A   Clear
9:54 AM 61.0 °F 50.0 °F 67% 30.13 in 10.0 mi South 9.2 mph - N/A   Clear
10:54 AM 66.0 °F 50.0 °F 56% 30.13 in 10.0 mi South 12.7 mph - N/A   Clear
11:54 AM 68.0 °F 50.0 °F 52% 30.13 in 10.0 mi South 13.8 mph - N/A   Clear
12:54 PM 71.1 °F 48.9 °F 45% 30.12 in 10.0 mi South 9.2 mph - N/A   Clear
1:54 PM 71.1 °F 46.9 °F 42% 30.10 in 10.0 mi South 10.4 mph - N/A   Clear
2:54 PM 73.9 °F 44.1 °F 34% 30.07 in 10.0 mi South 11.5 mph - N/A   Clear
3:54 PM 73.9 °F 44.1 °F 34% 30.06 in 10.0 mi SSE 12.7 mph - N/A   Clear
4:54 PM 73.0 °F 42.1 °F 33% 30.05 in 10.0 mi SSE 12.7 mph 18.4 mph N/A   Clear
5:54 PM 71.1 °F 43.0 °F 36% 30.06 in 10.0 mi SSE 9.2 mph - N/A   Clear
6:54 PM 61.0 °F 45.0 °F 56% 30.06 in 10.0 mi ESE 8.1 mph - N/A   Clear
7:54 PM 60.1 °F 45.0 °F 57% 30.08 in 10.0 mi SE 5.8 mph - N/A   Clear
8:54 PM 59.0 °F 45.0 °F 60% 30.08 in 10.0 mi SE 6.9 mph - N/A   Clear
9:54 PM 57.0 °F 44.1 °F 62% 30.08 in 10.0 mi SE 5.8 mph - N/A   Clear
10:54 PM 57.0 °F 44.1 °F 62% 30.09 in 10.0 mi SSE 6.9 mph - N/A   Clear
11:54 PM 55.0 °F 44.1 °F 67% 30.09 in 10.0 mi SE 6.9 mph - N/A   Clear